N750XL KTEB-BIKF

Flight info

Callsign N750XL
Flight time 4h 16m
Altitude 37000
Route BREZY V39 CMK DCT MERIT DCT HFD DCT PUT DCT ENE DCT BEEKN Q97 PQI DCT YGP DCT YYR DCT ENNSO DCT OZN DCT EPENI DCT ELDIS ELDIS4N
Aircraft C750/M-SBDE3FGHRWXY/S

Departure

Time 2026-05-08 01:56
Airport Teterboro Airport (KTEB)

Arrival

Time 2026-05-08 06:13
Airport Keflavik International Airport (BIKF)
Time Latitude Longitude Altitude Speed Heading
2026-05-08 01:31 40.85450 -74.05490 13 ft 0 kts 26°
2026-05-08 01:48 40.85465 -74.05494 13 ft 4 kts 306°
2026-05-08 01:48 40.85455 -74.05565 12 ft 11 kts 255°
2026-05-08 01:48 40.85438 -74.05631 12 ft 6 kts 301°
2026-05-08 01:48 40.85445 -74.05678 13 ft 7 kts 238°
2026-05-08 01:49 40.85400 -74.05746 13 ft 10 kts 229°
2026-05-08 01:49 40.85352 -74.05815 11 ft 10 kts 227°
2026-05-08 01:49 40.85302 -74.05889 9 ft 11 kts 228°
2026-05-08 01:49 40.85255 -74.05958 10 ft 9 kts 228°
2026-05-08 01:50 40.85217 -74.06014 11 ft 10 kts 229°
2026-05-08 01:50 40.85174 -74.06076 11 ft 10 kts 219°
2026-05-08 01:50 40.85088 -74.06093 10 ft 14 kts 183°
2026-05-08 01:50 40.85011 -74.06098 10 ft 10 kts 183°
2026-05-08 01:51 40.84952 -74.06103 10 ft 8 kts 182°
2026-05-08 01:51 40.84881 -74.06108 11 ft 11 kts 183°
2026-05-08 01:51 40.84805 -74.06113 11 ft 11 kts 183°
2026-05-08 01:51 40.84725 -74.06119 11 ft 12 kts 183°
2026-05-08 01:52 40.84639 -74.06125 11 ft 13 kts 183°
2026-05-08 01:52 40.84548 -74.06132 11 ft 13 kts 183°
2026-05-08 01:52 40.84485 -74.06137 11 ft 14 kts 183°
2026-05-08 01:52 40.84383 -74.06145 10 ft 15 kts 183°
2026-05-08 01:53 40.84282 -74.06153 11 ft 14 kts 183°
2026-05-08 01:53 40.84193 -74.06158 11 ft 12 kts 183°
2026-05-08 01:53 40.84115 -74.06163 11 ft 11 kts 183°
2026-05-08 01:53 40.84036 -74.06170 11 ft 13 kts 183°
2026-05-08 01:54 40.83954 -74.06177 13 ft 10 kts 183°
2026-05-08 01:54 40.83896 -74.06178 14 ft 7 kts 164°
2026-05-08 01:54 40.83882 -74.06142 13 ft 0 kts 94°
2026-05-08 01:54 40.83882 -74.06137 13 ft 3 kts 94°
2026-05-08 01:55 40.83879 -74.06071 10 ft 10 kts 93°
2026-05-08 01:55 40.83887 -74.06037 10 ft 2 kts 24°
2026-05-08 01:55 40.83903 -74.06035 10 ft 2 kts
2026-05-08 01:55 40.83906 -74.06035 10 ft 0 kts
2026-05-08 01:56 40.84159 -74.06017 13 ft 85 kts
2026-05-08 01:56 40.85004 -74.05952 34 ft 145 kts
2026-05-08 01:56 40.86056 -74.05885 421 ft 156 kts
2026-05-08 01:56 40.87125 -74.05808 1079 ft 158 kts
2026-05-08 01:57 40.88255 -74.05710 1606 ft 168 kts
2026-05-08 01:57 40.89462 -74.05622 2147 ft 178 kts
2026-05-08 01:57 40.90769 -74.05649 2535 ft 195 kts
2026-05-08 01:57 40.92054 -74.05098 3234 ft 198 kts 27°
2026-05-08 01:58 40.93142 -74.03869 3623 ft 217 kts 49°
2026-05-08 01:58 40.93918 -74.02057 3952 ft 236 kts 65°
2026-05-08 01:58 40.94552 -73.99941 4280 ft 260 kts 68°
2026-05-08 01:58 40.95231 -73.97651 4610 ft 271 kts 68°
2026-05-08 01:59 40.96112 -73.95434 4937 ft 273 kts 54°
2026-05-08 01:59 40.97279 -73.93430 5466 ft 279 kts 49°
2026-05-08 01:59 40.98497 -73.91405 6002 ft 283 kts 51°
2026-05-08 01:59 40.99630 -73.89245 6511 ft 288 kts 55°
2026-05-08 02:00 41.00732 -73.87009 7016 ft 291 kts 54°
2026-05-08 02:00 41.01873 -73.84787 7519 ft 294 kts 53°
2026-05-08 02:00 41.03044 -73.82557 8032 ft 295 kts 53°
2026-05-08 02:00 41.04196 -73.80334 8547 ft 298 kts 53°
2026-05-08 02:01 41.05363 -73.78060 9090 ft 299 kts 53°
2026-05-08 02:01 41.06539 -73.75775 9627 ft 302 kts 52°
2026-05-08 02:01 41.07734 -73.73460 10135 ft 306 kts 52°
2026-05-08 02:01 41.08950 -73.71103 10634 ft 315 kts 52°
2026-05-08 02:02 41.10207 -73.68662 11142 ft 326 kts 52°
2026-05-08 02:02 41.11503 -73.66139 11660 ft 336 kts 52°
2026-05-08 02:02 41.12834 -73.63546 12184 ft 344 kts 53°
2026-05-08 02:02 41.14200 -73.60885 12718 ft 353 kts 52°
2026-05-08 02:03 41.15596 -73.58163 13255 ft 360 kts 52°
2026-05-08 02:03 41.17021 -73.55381 13784 ft 368 kts 53°
2026-05-08 02:03 41.18474 -73.52541 14266 ft 375 kts 53°
2026-05-08 02:03 41.19953 -73.49651 14770 ft 381 kts 53°
2026-05-08 02:04 41.21453 -73.46713 15295 ft 387 kts 54°
2026-05-08 02:04 41.22978 -73.43725 15808 ft 393 kts 54°
2026-05-08 02:04 41.24520 -73.40698 16321 ft 399 kts 54°
2026-05-08 02:04 41.26087 -73.37621 16846 ft 405 kts 54°
2026-05-08 02:05 41.27678 -73.34496 17377 ft 411 kts 55°
2026-05-08 02:05 41.29292 -73.31320 17922 ft 418 kts 55°
2026-05-08 02:05 41.30929 -73.28096 18412 ft 424 kts 55°
2026-05-08 02:05 41.32568 -73.24864 18870 ft 430 kts 55°
2026-05-08 02:06 41.34255 -73.21537 19358 ft 436 kts 55°
2026-05-08 02:06 41.35962 -73.18166 19849 ft 442 kts 55°
2026-05-08 02:06 41.37689 -73.14747 20390 ft 447 kts 55°
2026-05-08 02:06 41.39307 -73.11178 20875 ft 453 kts 60°
2026-05-08 02:07 41.40909 -73.07547 21390 ft 457 kts 58°
2026-05-08 02:07 41.42563 -73.03908 21913 ft 462 kts 58°
2026-05-08 02:07 41.44211 -73.00204 22450 ft 466 kts 59°
2026-05-08 02:07 41.45844 -72.96445 22992 ft 470 kts 59°
2026-05-08 02:08 41.47498 -72.92666 23492 ft 474 kts 59°
2026-05-08 02:08 41.49186 -72.88867 23965 ft 477 kts 58°
2026-05-08 02:08 41.50876 -72.85045 24428 ft 480 kts 58°
2026-05-08 02:08 41.52565 -72.81179 24897 ft 484 kts 59°
2026-05-08 02:09 41.54263 -72.77288 25377 ft 486 kts 58°
2026-05-08 02:09 41.55979 -72.73382 25865 ft 489 kts 58°
2026-05-08 02:09 41.57703 -72.69452 26356 ft 491 kts 58°
2026-05-08 02:09 41.59427 -72.65501 26853 ft 494 kts 58°
2026-05-08 02:10 41.61158 -72.61522 27366 ft 496 kts 58°
2026-05-08 02:10 41.62897 -72.57531 27852 ft 498 kts 58°
2026-05-08 02:10 41.64647 -72.53519 28379 ft 500 kts 57°
2026-05-08 02:10 41.66436 -72.49521 28921 ft 502 kts 56°
2026-05-08 02:11 41.68274 -72.45538 29508 ft 503 kts 56°
2026-05-08 02:11 41.70075 -72.41583 30036 ft 505 kts 56°
2026-05-08 02:11 41.71895 -72.37485 30510 ft 506 kts 57°
2026-05-08 02:11 41.73678 -72.33479 30997 ft 507 kts 56°
2026-05-08 02:12 41.75503 -72.29441 31475 ft 507 kts 56°
2026-05-08 02:12 41.77328 -72.25398 31936 ft 508 kts 56°
2026-05-08 02:12 41.79141 -72.21333 32443 ft 508 kts 57°
2026-05-08 02:12 41.80948 -72.17267 32998 ft 508 kts 57°
2026-05-08 02:13 41.82763 -72.13204 33575 ft 508 kts 57°
2026-05-08 02:13 41.84580 -72.09145 34067 ft 507 kts 57°
2026-05-08 02:13 41.86387 -72.05084 34512 ft 507 kts 57°
2026-05-08 02:13 41.88186 -72.01026 34963 ft 506 kts 57°
2026-05-08 02:14 41.89986 -71.96968 35422 ft 505 kts 57°
2026-05-08 02:14 41.91783 -71.92922 35885 ft 504 kts 57°
2026-05-08 02:14 41.93597 -71.88901 36303 ft 502 kts 54°
2026-05-08 02:14 41.95718 -71.85206 36726 ft 498 kts 43°
2026-05-08 02:15 41.98209 -71.81986 36870 ft 500 kts 33°
2026-05-08 02:15 42.01066 -71.79280 36865 ft 503 kts 24°
2026-05-08 02:15 42.07342 -71.74853 36882 ft 519 kts 19°
2026-05-08 02:16 42.10538 -71.72452 36880 ft 534 kts 24°
2026-05-08 02:16 42.13707 -71.69707 36877 ft 547 kts 27°
2026-05-08 02:16 42.20226 -71.64125 36881 ft 562 kts 23°
2026-05-08 02:17 42.27033 -71.58739 36871 ft 580 kts 26°
2026-05-08 02:17 42.33929 -71.52865 36876 ft 590 kts 25°
2026-05-08 02:18 42.41025 -71.47150 36870 ft 598 kts 25°
2026-05-08 02:18 42.48082 -71.41182 36867 ft 603 kts 26°
2026-05-08 02:19 42.55316 -71.35251 36868 ft 604 kts 25°
2026-05-08 02:19 42.62465 -71.29237 36861 ft 604 kts 26°
2026-05-08 02:20 42.69638 -71.23276 36874 ft 604 kts 26°
2026-05-08 02:20 42.76784 -71.17269 36875 ft 604 kts 26°
2026-05-08 02:21 42.83936 -71.11265 36913 ft 604 kts 26°
2026-05-08 02:21 42.91072 -71.05250 36826 ft 602 kts 26°
2026-05-08 02:22 42.98201 -70.99223 36822 ft 603 kts 26°
2026-05-08 02:22 43.05286 -70.93223 36827 ft 601 kts 27°
2026-05-08 02:23 43.12407 -70.87169 36807 ft 602 kts 27°
2026-05-08 02:23 43.19531 -70.81103 36816 ft 603 kts 27°
2026-05-08 02:24 43.26653 -70.75014 36833 ft 603 kts 27°
2026-05-08 02:24 43.33776 -70.68913 36855 ft 603 kts 27°
2026-05-08 02:25 43.40893 -70.62795 36842 ft 603 kts 27°
2026-05-08 02:25 43.48223 -70.57320 36835 ft 598 kts 21°
2026-05-08 02:26 43.55656 -70.52162 36835 ft 598 kts 22°
2026-05-08 02:26 43.63034 -70.46853 36823 ft 598 kts 21°
2026-05-08 02:27 43.70448 -70.41654 36821 ft 598 kts 22°
2026-05-08 02:27 43.77828 -70.36344 36817 ft 598 kts 22°
2026-05-08 02:28 43.85180 -70.31130 36829 ft 598 kts 22°
2026-05-08 02:28 43.92565 -70.25813 36833 ft 598 kts 22°
2026-05-08 02:29 43.99961 -70.20516 36832 ft 598 kts 22°
2026-05-08 02:29 44.07347 -70.15187 36835 ft 598 kts 23°
2026-05-08 02:30 44.14749 -70.09841 36832 ft 598 kts 22°
2026-05-08 02:30 44.22139 -70.04488 36832 ft 599 kts 23°
2026-05-08 02:31 44.29531 -69.99115 36831 ft 599 kts 23°
2026-05-08 02:31 44.36918 -69.93734 36829 ft 599 kts 23°
2026-05-08 02:32 44.44312 -69.88328 36825 ft 599 kts 23°
2026-05-08 02:32 44.51694 -69.82920 36808 ft 599 kts 23°
2026-05-08 02:33 44.59083 -69.77486 36808 ft 599 kts 23°
2026-05-08 02:33 44.66462 -69.72047 36813 ft 599 kts 24°
2026-05-08 02:34 44.73803 -69.66618 36817 ft 599 kts 24°
2026-05-08 02:34 44.81180 -69.61148 36804 ft 599 kts 24°
2026-05-08 02:35 44.88560 -69.55659 36809 ft 599 kts 24°
2026-05-08 02:35 44.95936 -69.50158 36806 ft 599 kts 24°
2026-05-08 02:36 45.03315 -69.44638 36808 ft 600 kts 24°
2026-05-08 02:36 45.10688 -69.39106 36799 ft 600 kts 24°
2026-05-08 02:37 45.18055 -69.33562 36798 ft 599 kts 24°
2026-05-08 02:37 45.25417 -69.28006 36792 ft 600 kts 24°
2026-05-08 02:38 45.32779 -69.22432 36794 ft 599 kts 24°
2026-05-08 02:38 45.38889 -69.17796 36792 ft 599 kts 24°
2026-05-08 02:39 45.46249 -69.12194 36792 ft 600 kts 24°
2026-05-08 02:39 45.53600 -69.06582 36794 ft 599 kts 24°
2026-05-08 02:40 45.60946 -69.00959 36792 ft 599 kts 24°
2026-05-08 02:40 45.68291 -68.95316 36789 ft 598 kts 25°
2026-05-08 02:41 45.75624 -68.89671 36787 ft 598 kts 25°
2026-05-08 02:41 45.82950 -68.84009 36792 ft 598 kts 25°
2026-05-08 02:42 45.90219 -68.78377 36794 ft 598 kts 25°
2026-05-08 02:42 45.97544 -68.72684 36795 ft 598 kts 25°
2026-05-08 02:43 46.04858 -68.66982 36796 ft 598 kts 25°
2026-05-08 02:43 46.12164 -68.61269 36799 ft 598 kts 25°
2026-05-08 02:44 46.19476 -68.55534 36802 ft 598 kts 25°
2026-05-08 02:44 46.26774 -68.49792 36804 ft 597 kts 25°
2026-05-08 02:45 46.34066 -68.44038 36807 ft 597 kts 25°
2026-05-08 02:45 46.41367 -68.38258 36809 ft 597 kts 25°
2026-05-08 02:46 46.48654 -68.32473 36794 ft 597 kts 25°
2026-05-08 02:46 46.55942 -68.26668 36793 ft 597 kts 25°
2026-05-08 02:47 46.63218 -68.20855 36765 ft 596 kts 25°
2026-05-08 02:47 46.70489 -68.15028 36755 ft 596 kts 25°
2026-05-08 02:48 46.77524 -68.08584 36734 ft 601 kts 36°
2026-05-08 02:48 46.83360 -67.99937 36721 ft 604 kts 50°
2026-05-08 02:49 46.88442 -67.90167 36738 ft 604 kts 53°
2026-05-08 02:49 46.93816 -67.80773 36736 ft 601 kts 47°
2026-05-08 02:50 46.99242 -67.71452 36728 ft 603 kts 52°
2026-05-08 02:50 47.04542 -67.61872 36729 ft 605 kts 49°
2026-05-08 02:51 47.09993 -67.52468 36736 ft 604 kts 51°
2026-05-08 02:51 47.15286 -67.42864 36738 ft 605 kts 50°
2026-05-08 02:52 47.20701 -67.33397 36737 ft 605 kts 50°
2026-05-08 02:52 47.26005 -67.23781 36730 ft 604 kts 50°
2026-05-08 02:53 47.31339 -67.14317 36729 ft 604 kts 50°
2026-05-08 02:53 47.36648 -67.04694 36725 ft 604 kts 50°
2026-05-08 02:54 47.41971 -66.95125 36724 ft 602 kts 50°
2026-05-08 02:54 47.47261 -66.85514 36714 ft 604 kts 51°
2026-05-08 02:55 47.55232 -66.71024 36716 ft 606 kts 51°
2026-05-08 02:56 47.60518 -66.61337 36717 ft 603 kts 51°
2026-05-08 02:56 47.65768 -66.51720 36713 ft 604 kts 51°
2026-05-08 02:57 47.71036 -66.42009 36710 ft 604 kts 51°
2026-05-08 02:57 47.76290 -66.32304 36703 ft 602 kts 51°
2026-05-08 02:58 47.81529 -66.22585 36706 ft 602 kts 51°
2026-05-08 02:58 47.86762 -66.12845 36706 ft 602 kts 51°
2026-05-08 02:59 47.91982 -66.03094 36676 ft 601 kts 51°
2026-05-08 02:59 47.97194 -65.93323 36682 ft 603 kts 51°
2026-05-08 03:00 48.02410 -65.83508 36674 ft 603 kts 52°
2026-05-08 03:00 48.07609 -65.73690 36679 ft 602 kts 52°
2026-05-08 03:01 48.12798 -65.63855 36677 ft 602 kts 52°
2026-05-08 03:01 48.17979 -65.54000 36674 ft 602 kts 52°
2026-05-08 03:02 48.23152 -65.44124 36673 ft 601 kts 52°
2026-05-08 03:02 48.28312 -65.34235 36674 ft 602 kts 52°
2026-05-08 03:03 48.33432 -65.24388 36674 ft 602 kts 52°
2026-05-08 03:03 48.38575 -65.14462 36628 ft 601 kts 53°
2026-05-08 03:04 48.43719 -65.04493 36670 ft 606 kts 53°
2026-05-08 03:04 48.48889 -64.94443 36672 ft 606 kts 53°
2026-05-08 03:05 48.54050 -64.84368 36686 ft 607 kts 53°
2026-05-08 03:05 48.59206 -64.74267 36681 ft 607 kts 53°
2026-05-08 03:06 48.64348 -64.64155 36673 ft 607 kts 53°
2026-05-08 03:06 48.69484 -64.54017 36671 ft 607 kts 53°
2026-05-08 03:07 48.74749 -64.44020 36651 ft 608 kts 47°
2026-05-08 03:07 48.81236 -64.35889 36655 ft 604 kts 30°
2026-05-08 03:08 48.88616 -64.30061 36682 ft 600 kts 21°
2026-05-08 03:08 48.96187 -64.24698 36668 ft 602 kts 25°
2026-05-08 03:09 49.03454 -64.18326 36668 ft 603 kts 27°
2026-05-08 03:09 49.10881 -64.12454 36672 ft 599 kts 24°
2026-05-08 03:10 49.18211 -64.06356 36668 ft 601 kts 27°
2026-05-08 03:10 49.25563 -64.00319 36668 ft 600 kts 25°
2026-05-08 03:11 49.32912 -63.94280 36668 ft 597 kts 27°
2026-05-08 03:11 49.40209 -63.88181 36667 ft 597 kts 26°
2026-05-08 03:12 49.47539 -63.82146 36669 ft 598 kts 27°
2026-05-08 03:12 49.54820 -63.76013 36656 ft 596 kts 26°
2026-05-08 03:13 49.62120 -63.69954 36651 ft 596 kts 27°
2026-05-08 03:13 49.69395 -63.63800 36650 ft 596 kts 27°
2026-05-08 03:14 49.76660 -63.57708 36652 ft 593 kts 27°
2026-05-08 03:14 49.83848 -63.51606 36646 ft 594 kts 27°
2026-05-08 03:15 49.91096 -63.45467 36636 ft 593 kts 27°
2026-05-08 03:15 49.98317 -63.39310 36629 ft 592 kts 27°
2026-05-08 03:16 50.05543 -63.33137 36624 ft 592 kts 27°
2026-05-08 03:16 50.12764 -63.26945 36617 ft 592 kts 28°
2026-05-08 03:17 50.19973 -63.20739 36615 ft 592 kts 28°
2026-05-08 03:17 50.27189 -63.14510 36615 ft 592 kts 28°
2026-05-08 03:18 50.34396 -63.08262 36607 ft 592 kts 28°
2026-05-08 03:18 50.41604 -63.01995 36604 ft 592 kts 28°
2026-05-08 03:19 50.48804 -62.95710 36606 ft 592 kts 28°
2026-05-08 03:19 50.55954 -62.89449 36601 ft 594 kts 28°
2026-05-08 03:20 50.63169 -62.83108 36600 ft 594 kts 28°
2026-05-08 03:20 50.70376 -62.76753 36597 ft 594 kts 28°
2026-05-08 03:21 50.77591 -62.70365 36606 ft 595 kts 29°
2026-05-08 03:21 50.84803 -62.63959 36599 ft 594 kts 29°
2026-05-08 03:22 50.92019 -62.57527 36596 ft 595 kts 29°
2026-05-08 03:22 50.99235 -62.51070 36596 ft 595 kts 29°
2026-05-08 03:23 51.06442 -62.44598 36589 ft 595 kts 29°
2026-05-08 03:23 51.13641 -62.38111 36589 ft 595 kts 29°
2026-05-08 03:24 51.20845 -62.31596 36579 ft 596 kts 30°
2026-05-08 03:24 51.28042 -62.25063 36590 ft 593 kts 30°
2026-05-08 03:25 51.35191 -62.18550 36587 ft 592 kts 30°
2026-05-08 03:25 51.42297 -62.12054 36590 ft 592 kts 30°
2026-05-08 03:26 51.49443 -62.05495 36577 ft 592 kts 30°
2026-05-08 03:26 51.56634 -61.98873 36576 ft 592 kts 30°
2026-05-08 03:27 51.63730 -61.92313 36567 ft 592 kts 30°
2026-05-08 03:27 51.70863 -61.85695 36571 ft 592 kts 30°
2026-05-08 03:28 51.77993 -61.79056 36571 ft 592 kts 30°
2026-05-08 03:28 51.83920 -61.73519 36560 ft 592 kts 31°
2026-05-08 03:29 51.91040 -61.66843 36555 ft 592 kts 31°
2026-05-08 03:29 51.98166 -61.60138 36551 ft 592 kts 31°
2026-05-08 03:30 52.08838 -61.50049 36551 ft 592 kts 31°
2026-05-08 03:31 52.23050 -61.36525 36542 ft 592 kts 31°
2026-05-08 03:32 52.33683 -61.26342 36537 ft 590 kts 31°
2026-05-08 03:32 52.40761 -61.19530 36532 ft 590 kts 31°
2026-05-08 03:33 52.47840 -61.12693 36532 ft 590 kts 32°
2026-05-08 03:33 52.54914 -61.05834 36528 ft 590 kts 32°
2026-05-08 03:34 52.61988 -60.98949 36532 ft 590 kts 32°
2026-05-08 03:34 52.69003 -60.92096 36530 ft 588 kts 32°
2026-05-08 03:35 52.76049 -60.85185 36525 ft 589 kts 32°
2026-05-08 03:35 52.83099 -60.78246 36525 ft 589 kts 32°
2026-05-08 03:36 52.90140 -60.71288 36516 ft 589 kts 32°
2026-05-08 03:36 52.97175 -60.64310 36512 ft 589 kts 32°
2026-05-08 03:37 53.04202 -60.57312 36501 ft 589 kts 32°
2026-05-08 03:37 53.11231 -60.50286 36470 ft 589 kts 33°
2026-05-08 03:38 53.18196 -60.43296 36485 ft 588 kts 33°
2026-05-08 03:38 53.25205 -60.36236 36482 ft 588 kts 33°
2026-05-08 03:39 53.32159 -60.29061 36469 ft 587 kts 37°
2026-05-08 03:39 53.38440 -60.20458 36487 ft 583 kts 44°
2026-05-08 03:40 53.44666 -60.11725 36498 ft 584 kts 41°
2026-05-08 03:40 53.50942 -60.03063 36498 ft 583 kts 43°
2026-05-08 03:41 53.57142 -59.94264 36483 ft 583 kts 43°
2026-05-08 03:41 53.63397 -59.85559 36480 ft 583 kts 43°
2026-05-08 03:42 53.69592 -59.76721 36478 ft 583 kts 43°
2026-05-08 03:42 53.75819 -59.67953 36474 ft 580 kts 43°
2026-05-08 03:43 53.81971 -59.59140 36470 ft 580 kts 43°
2026-05-08 03:43 53.88108 -59.50398 36470 ft 580 kts 43°
2026-05-08 03:44 53.94262 -59.41540 36467 ft 580 kts 44°
2026-05-08 03:44 54.00408 -59.32693 36464 ft 580 kts 44°
2026-05-08 03:45 54.06549 -59.23798 36468 ft 580 kts 44°
2026-05-08 03:45 54.12689 -59.14880 36469 ft 580 kts 44°
2026-05-08 03:46 54.18812 -59.05945 36467 ft 578 kts 44°
2026-05-08 03:46 54.24922 -58.96993 36464 ft 579 kts 44°
2026-05-08 03:47 54.31025 -58.88017 36463 ft 579 kts 44°
2026-05-08 03:47 54.37125 -58.79007 36449 ft 578 kts 45°
2026-05-08 03:48 54.43201 -58.69997 36461 ft 577 kts 45°
2026-05-08 03:48 54.49275 -58.60952 36461 ft 577 kts 45°
2026-05-08 03:49 54.55340 -58.51885 36462 ft 577 kts 45°
2026-05-08 03:49 54.61369 -58.42834 36458 ft 577 kts 45°
2026-05-08 03:50 54.67418 -58.33716 36458 ft 577 kts 45°
2026-05-08 03:50 54.73454 -58.24581 36456 ft 576 kts 45°
2026-05-08 03:51 54.79491 -58.15404 36464 ft 578 kts 46°
2026-05-08 03:51 54.85533 -58.06184 36464 ft 578 kts 46°
2026-05-08 03:52 54.91565 -57.96940 36462 ft 578 kts 46°
2026-05-08 03:52 54.97546 -57.87737 36471 ft 578 kts 46°
2026-05-08 03:53 55.03571 -57.78426 36470 ft 579 kts 46°
2026-05-08 03:53 55.09593 -57.69082 36468 ft 579 kts 46°
2026-05-08 03:54 55.15604 -57.59715 36475 ft 579 kts 46°
2026-05-08 03:54 55.21606 -57.50324 36473 ft 577 kts 46°
2026-05-08 03:55 55.27590 -57.40918 36485 ft 578 kts 46°
2026-05-08 03:55 55.33517 -57.31567 36488 ft 576 kts 46°
2026-05-08 03:56 55.39475 -57.22124 36489 ft 577 kts 46°
2026-05-08 03:56 55.45408 -57.12682 36502 ft 575 kts 46°
2026-05-08 03:57 55.51333 -57.03210 36503 ft 574 kts 46°
2026-05-08 03:57 55.56561 -56.92752 36507 ft 565 kts 59°
2026-05-08 03:58 55.61183 -56.81513 36522 ft 566 kts 58°
2026-05-08 03:58 55.66028 -56.70477 36525 ft 566 kts 58°
2026-05-08 03:59 55.70664 -56.59319 36528 ft 566 kts 59°
2026-05-08 03:59 55.75432 -56.48185 36535 ft 566 kts 58°
2026-05-08 04:00 55.80118 -56.36946 36541 ft 566 kts 59°
2026-05-08 04:00 55.84838 -56.25722 36550 ft 567 kts 58°
2026-05-08 04:01 55.89524 -56.14452 36557 ft 566 kts 59°
2026-05-08 04:01 55.94206 -56.03168 36561 ft 566 kts 58°
2026-05-08 04:02 55.98872 -55.91869 36569 ft 566 kts 58°
2026-05-08 04:02 56.03531 -55.80525 36577 ft 566 kts 58°
2026-05-08 04:03 56.08179 -55.69167 36588 ft 565 kts 59°
2026-05-08 04:03 56.15098 -55.52151 36604 ft 565 kts 58°
2026-05-08 04:04 56.19715 -55.40725 36601 ft 565 kts 58°
2026-05-08 04:04 56.24338 -55.29238 36610 ft 568 kts 58°
2026-05-08 04:05 56.28957 -55.17703 36619 ft 568 kts 59°
2026-05-08 04:05 56.33563 -55.06147 36644 ft 568 kts 58°
2026-05-08 04:06 56.38166 -54.94542 36641 ft 568 kts 58°
2026-05-08 04:06 56.42752 -54.82926 36655 ft 568 kts 59°
2026-05-08 04:07 56.47329 -54.71278 36663 ft 568 kts 59°
2026-05-08 04:07 56.51897 -54.59597 36664 ft 568 kts 59°
2026-05-08 04:08 56.56448 -54.47901 36674 ft 568 kts 59°
2026-05-08 04:08 56.60990 -54.36172 36681 ft 568 kts 59°
2026-05-08 04:09 56.65524 -54.24410 36681 ft 568 kts 59°
2026-05-08 04:09 56.70014 -54.12702 36694 ft 568 kts 59°
2026-05-08 04:10 56.74523 -54.00890 36705 ft 568 kts 59°
2026-05-08 04:10 56.79019 -53.89052 36705 ft 568 kts 59°
2026-05-08 04:11 56.83508 -53.77175 36715 ft 568 kts 59°
2026-05-08 04:11 56.87974 -53.65304 36716 ft 566 kts 59°
2026-05-08 04:12 56.92424 -53.53412 36736 ft 566 kts 59°
2026-05-08 04:12 56.96864 -53.41492 36747 ft 566 kts 59°
2026-05-08 04:13 57.01291 -53.29544 36747 ft 566 kts 59°
2026-05-08 04:13 57.05666 -53.17686 36756 ft 563 kts 59°
2026-05-08 04:14 57.10048 -53.05738 36767 ft 564 kts 59°
2026-05-08 04:14 57.14420 -52.93770 36767 ft 564 kts 59°
2026-05-08 04:15 57.18781 -52.81764 36789 ft 564 kts 59°
2026-05-08 04:15 57.23125 -52.69750 36789 ft 563 kts 59°
2026-05-08 04:16 57.27454 -52.57713 36795 ft 563 kts 59°
2026-05-08 04:16 57.31773 -52.45648 36802 ft 563 kts 59°
2026-05-08 04:17 57.36079 -52.33556 36800 ft 562 kts 59°
2026-05-08 04:17 57.40353 -52.21496 36814 ft 558 kts 59°
2026-05-08 04:18 57.44582 -52.09499 36830 ft 559 kts 59°
2026-05-08 04:18 57.48143 -51.99354 36831 ft 559 kts 59°
2026-05-08 04:19 57.53066 -51.85252 36842 ft 559 kts 59°
2026-05-08 04:19 57.56568 -51.75174 36820 ft 555 kts 59°
2026-05-08 04:20 57.60754 -51.63066 36850 ft 556 kts 59°
2026-05-08 04:20 57.64934 -51.50918 36859 ft 556 kts 59°
2026-05-08 04:21 57.69105 -51.38732 36859 ft 556 kts 59°
2026-05-08 04:21 57.73260 -51.26530 36889 ft 557 kts 59°
2026-05-08 04:22 57.77413 -51.14276 36872 ft 557 kts 59°
2026-05-08 04:22 57.81549 -51.02003 36891 ft 557 kts 59°
2026-05-08 04:23 57.85671 -50.89710 36903 ft 557 kts 59°
2026-05-08 04:23 57.89783 -50.77384 36904 ft 556 kts 59°
2026-05-08 04:24 57.93854 -50.65120 36892 ft 556 kts 59°
2026-05-08 04:24 57.97939 -50.52745 36907 ft 556 kts 59°
2026-05-08 04:25 58.02015 -50.40335 36920 ft 556 kts 59°
2026-05-08 04:25 58.06077 -50.27902 36929 ft 557 kts 59°
2026-05-08 04:26 58.10135 -50.15417 36920 ft 557 kts 59°
2026-05-08 04:26 58.14178 -50.02911 36937 ft 557 kts 59°
2026-05-08 04:27 58.18211 -49.90370 36941 ft 557 kts 59°
2026-05-08 04:27 58.22231 -49.77802 36936 ft 557 kts 59°
2026-05-08 04:28 58.26237 -49.65209 36958 ft 557 kts 59°
2026-05-08 04:28 58.30234 -49.52579 36958 ft 557 kts 59°
2026-05-08 04:29 58.34220 -49.39916 36960 ft 557 kts 59°
2026-05-08 04:29 58.38164 -49.27318 36957 ft 556 kts 59°
2026-05-08 04:30 58.42121 -49.14610 36967 ft 558 kts 60°
2026-05-08 04:30 58.46076 -49.01837 36972 ft 559 kts 60°
2026-05-08 04:31 58.50021 -48.89029 36976 ft 559 kts 60°
2026-05-08 04:31 58.53956 -48.76184 36981 ft 559 kts 60°
2026-05-08 04:32 58.57867 -48.63346 36995 ft 558 kts 59°
2026-05-08 04:32 58.61741 -48.50561 36996 ft 558 kts 59°
2026-05-08 04:33 58.65625 -48.37667 37005 ft 558 kts 60°
2026-05-08 04:33 58.69495 -48.24752 37005 ft 558 kts 60°
2026-05-08 04:34 58.73346 -48.11829 37026 ft 555 kts 59°
2026-05-08 04:34 58.77175 -47.98907 37033 ft 556 kts 60°
2026-05-08 04:35 58.80995 -47.85942 37034 ft 556 kts 60°
2026-05-08 04:35 58.84803 -47.72947 37045 ft 556 kts 60°
2026-05-08 04:36 58.88592 -47.59940 37041 ft 553 kts 60°
2026-05-08 04:36 58.92366 -47.46916 37050 ft 554 kts 60°
2026-05-08 04:37 58.96122 -47.33877 37061 ft 555 kts 60°
2026-05-08 04:37 58.99847 -47.20873 37064 ft 555 kts 60°
2026-05-08 04:38 59.03574 -47.07789 37077 ft 551 kts 60°
2026-05-08 04:38 59.07271 -46.94736 37077 ft 552 kts 60°
2026-05-08 04:39 59.10958 -46.81642 37084 ft 552 kts 60°
2026-05-08 04:39 59.14630 -46.68527 37093 ft 552 kts 60°
2026-05-08 04:40 59.18295 -46.55365 37096 ft 552 kts 61°
2026-05-08 04:40 59.21938 -46.42201 37106 ft 552 kts 61°
2026-05-08 04:41 59.25573 -46.28992 37107 ft 552 kts 61°
2026-05-08 04:41 59.29190 -46.15769 37114 ft 552 kts 61°
2026-05-08 04:42 59.32800 -46.02500 37123 ft 552 kts 61°
2026-05-08 04:42 59.36353 -45.89358 37133 ft 549 kts 62°
2026-05-08 04:43 59.39913 -45.76116 37136 ft 549 kts 62°
2026-05-08 04:43 59.43463 -45.62834 37140 ft 549 kts 62°
2026-05-08 04:44 59.46999 -45.49523 37138 ft 548 kts 62°
2026-05-08 04:44 59.50512 -45.36223 37151 ft 547 kts 62°
2026-05-08 04:45 59.54012 -45.22893 37161 ft 547 kts 62°
2026-05-08 04:45 59.57497 -45.09540 37172 ft 548 kts 62°
2026-05-08 04:46 59.60971 -44.96149 37173 ft 548 kts 62°
2026-05-08 04:46 59.64426 -44.82749 37189 ft 546 kts 62°
2026-05-08 04:47 59.67840 -44.69432 37189 ft 546 kts 62°
2026-05-08 04:47 59.71262 -44.56002 37215 ft 546 kts 62°
2026-05-08 04:48 59.74668 -44.42553 37206 ft 546 kts 63°
2026-05-08 04:48 59.78063 -44.29063 37225 ft 546 kts 63°
2026-05-08 04:49 59.81447 -44.15538 37237 ft 546 kts 63°
2026-05-08 04:49 59.84817 -44.01985 37235 ft 546 kts 63°
2026-05-08 04:50 59.88173 -43.88407 37238 ft 546 kts 63°
2026-05-08 04:50 59.91511 -43.74814 37236 ft 546 kts 63°
2026-05-08 04:51 59.94832 -43.61208 37253 ft 546 kts 63°
2026-05-08 04:51 59.98120 -43.47653 37264 ft 546 kts 63°
2026-05-08 04:52 60.01417 -43.33975 37264 ft 545 kts 63°
2026-05-08 04:52 60.04696 -43.20285 37254 ft 545 kts 63°
2026-05-08 04:53 60.08303 -43.07002 37266 ft 541 kts 57°
2026-05-08 04:53 60.12142 -42.94065 37284 ft 541 kts 58°
2026-05-08 04:54 60.15877 -42.80944 37271 ft 541 kts 58°
2026-05-08 04:54 60.19672 -42.67891 37273 ft 541 kts 58°
2026-05-08 04:55 60.23398 -42.54757 37273 ft 541 kts 58°
2026-05-08 04:55 60.27099 -42.41797 37274 ft 535 kts 58°
2026-05-08 04:56 60.30782 -42.28733 37278 ft 536 kts 58°
2026-05-08 04:56 60.34469 -42.15628 37273 ft 537 kts 58°
2026-05-08 04:57 60.38137 -42.02491 37270 ft 537 kts 58°
2026-05-08 04:57 60.41785 -41.89360 37270 ft 534 kts 58°
2026-05-08 04:58 60.45414 -41.76222 37272 ft 535 kts 59°
2026-05-08 04:58 60.49031 -41.63048 37272 ft 535 kts 59°
2026-05-08 04:59 60.52636 -41.49840 37274 ft 535 kts 59°
2026-05-08 04:59 60.56228 -41.36606 37280 ft 533 kts 59°
2026-05-08 05:00 60.59792 -41.23395 37279 ft 533 kts 59°
2026-05-08 05:00 60.63348 -41.10137 37293 ft 533 kts 59°
2026-05-08 05:01 60.66868 -40.96937 37294 ft 533 kts 59°
2026-05-08 05:01 60.70398 -40.83618 37293 ft 533 kts 60°
2026-05-08 05:02 60.73901 -40.70323 37292 ft 531 kts 60°
2026-05-08 05:02 60.77387 -40.57015 37293 ft 531 kts 60°
2026-05-08 05:03 60.80863 -40.43664 37293 ft 531 kts 60°
2026-05-08 05:03 60.84328 -40.30275 37293 ft 531 kts 60°
2026-05-08 05:04 60.87777 -40.16870 37296 ft 529 kts 60°
2026-05-08 05:04 60.91180 -40.03563 37296 ft 530 kts 60°
2026-05-08 05:05 60.94596 -39.90122 37302 ft 530 kts 60°
2026-05-08 05:05 60.98000 -39.76651 37302 ft 530 kts 60°
2026-05-08 05:06 61.01389 -39.63157 37295 ft 530 kts 60°
2026-05-08 05:06 61.04760 -39.49646 37309 ft 530 kts 60°
2026-05-08 05:07 61.08119 -39.36107 37305 ft 530 kts 60°
2026-05-08 05:07 61.11464 -39.22538 37308 ft 530 kts 60°
2026-05-08 05:08 61.14796 -39.08939 37308 ft 530 kts 60°
2026-05-08 05:08 61.18115 -38.95308 37312 ft 529 kts 60°
2026-05-08 05:09 61.21414 -38.81671 37312 ft 529 kts 60°
2026-05-08 05:09 61.24152 -38.70291 37315 ft 529 kts 60°
2026-05-08 05:10 61.29596 -38.47484 37316 ft 529 kts 61°
2026-05-08 05:11 61.32324 -38.35968 37321 ft 530 kts 61°
2026-05-08 05:11 61.35567 -38.22192 37321 ft 530 kts 61°
2026-05-08 05:12 61.38774 -38.08485 37325 ft 530 kts 61°
2026-05-08 05:12 61.41991 -37.94645 37325 ft 530 kts 61°
2026-05-08 05:13 61.45194 -37.80777 37338 ft 530 kts 61°
2026-05-08 05:13 61.48379 -37.66898 37329 ft 530 kts 61°
2026-05-08 05:14 61.51552 -37.52980 37325 ft 530 kts 61°
2026-05-08 05:14 61.54711 -37.39036 37327 ft 530 kts 62°
2026-05-08 05:15 61.57856 -37.25060 37332 ft 530 kts 62°
2026-05-08 05:15 61.60989 -37.11045 37335 ft 529 kts 62°
2026-05-08 05:16 61.64103 -36.97024 37334 ft 529 kts 62°
2026-05-08 05:16 61.67203 -36.82971 37334 ft 529 kts 62°
2026-05-08 05:17 61.70291 -36.68881 37338 ft 529 kts 62°
2026-05-08 05:17 61.73363 -36.54769 37337 ft 529 kts 62°
2026-05-08 05:18 61.76420 -36.40630 37341 ft 529 kts 62°
2026-05-08 05:18 61.79463 -36.26464 37341 ft 529 kts 62°
2026-05-08 05:19 61.82488 -36.12284 37344 ft 529 kts 62°
2026-05-08 05:19 61.85480 -35.98160 37345 ft 529 kts 62°
2026-05-08 05:20 61.88497 -35.83822 37342 ft 529 kts 62°
2026-05-08 05:20 61.91461 -35.69642 37344 ft 528 kts 62°
2026-05-08 05:21 61.94422 -35.55375 37348 ft 528 kts 62°
2026-05-08 05:21 61.97366 -35.41092 37343 ft 528 kts 62°
2026-05-08 05:22 62.00297 -35.26770 37346 ft 528 kts 63°
2026-05-08 05:22 62.03213 -35.12425 37345 ft 528 kts 62°
2026-05-08 05:23 62.06112 -34.98060 37346 ft 528 kts 63°
2026-05-08 05:23 62.08999 -34.83656 37354 ft 528 kts 63°
2026-05-08 05:24 62.11871 -34.69223 37354 ft 528 kts 63°
2026-05-08 05:24 62.14728 -34.54761 37357 ft 528 kts 63°
2026-05-08 05:25 62.17567 -34.40287 37357 ft 528 kts 63°
2026-05-08 05:25 62.20390 -34.25790 37356 ft 528 kts 63°
2026-05-08 05:26 62.23202 -34.11248 37356 ft 528 kts 63°
2026-05-08 05:26 62.25997 -33.96685 37361 ft 528 kts 63°
2026-05-08 05:27 62.28758 -33.82194 37348 ft 528 kts 63°
2026-05-08 05:27 62.31528 -33.67552 37348 ft 528 kts 64°
2026-05-08 05:28 62.34280 -33.52892 37348 ft 528 kts 64°
2026-05-08 05:28 62.37017 -33.38202 37348 ft 528 kts 64°
2026-05-08 05:29 62.39738 -33.23493 37386 ft 528 kts 64°
2026-05-08 05:29 62.42442 -33.08763 37365 ft 528 kts 64°
2026-05-08 05:30 62.45130 -32.94005 37361 ft 528 kts 64°
2026-05-08 05:30 62.47788 -32.79306 37361 ft 528 kts 64°
2026-05-08 05:31 62.50447 -32.64489 37362 ft 528 kts 64°
2026-05-08 05:31 62.53088 -32.49652 37363 ft 527 kts 64°
2026-05-08 05:32 62.55713 -32.34800 37366 ft 528 kts 64°
2026-05-08 05:32 62.58320 -32.19924 37367 ft 528 kts 64°
2026-05-08 05:33 62.60914 -32.05013 37366 ft 528 kts 65°
2026-05-08 05:33 62.63491 -31.90079 37366 ft 528 kts 65°
2026-05-08 05:34 62.66053 -31.75111 37365 ft 528 kts 65°
2026-05-08 05:34 62.68601 -31.60109 37363 ft 528 kts 65°
2026-05-08 05:35 62.71130 -31.45097 37372 ft 525 kts 65°
2026-05-08 05:35 62.73635 -31.30118 37372 ft 526 kts 65°
2026-05-08 05:36 62.76121 -31.15114 37370 ft 524 kts 65°
2026-05-08 05:36 62.78583 -31.00155 37371 ft 524 kts 65°
2026-05-08 05:37 62.81016 -30.85227 37365 ft 524 kts 65°
2026-05-08 05:37 62.83451 -30.70187 37366 ft 524 kts 65°
2026-05-08 05:38 62.85869 -30.55109 37364 ft 525 kts 65°
2026-05-08 05:38 62.88266 -30.40038 37362 ft 521 kts 65°
2026-05-08 05:39 62.90645 -30.24974 37355 ft 523 kts 65°
2026-05-08 05:39 62.93004 -30.09891 37356 ft 523 kts 66°
2026-05-08 05:40 62.95351 -29.94772 37356 ft 523 kts 66°
2026-05-08 05:40 62.97682 -29.79616 37355 ft 523 kts 66°
2026-05-08 05:41 62.99990 -29.64478 37359 ft 522 kts 66°
2026-05-08 05:41 63.02282 -29.49332 37361 ft 522 kts 66°
2026-05-08 05:42 63.04547 -29.34218 37359 ft 522 kts 66°
2026-05-08 05:42 63.06807 -29.19011 37357 ft 522 kts 66°
2026-05-08 05:43 63.09052 -29.03775 37364 ft 523 kts 66°
2026-05-08 05:43 63.11276 -28.88539 37348 ft 521 kts 66°
2026-05-08 05:44 63.13485 -28.73273 37349 ft 522 kts 66°
2026-05-08 05:44 63.15679 -28.57977 37346 ft 522 kts 66°
2026-05-08 05:45 63.17857 -28.42656 37346 ft 522 kts 67°
2026-05-08 05:45 63.20020 -28.27301 37343 ft 521 kts 66°
2026-05-08 05:46 63.22163 -28.11945 37338 ft 522 kts 66°
2026-05-08 05:46 63.24293 -27.96537 37327 ft 522 kts 67°
2026-05-08 05:47 63.26406 -27.81113 37337 ft 522 kts 67°
2026-05-08 05:47 63.28504 -27.65651 37333 ft 522 kts 67°
2026-05-08 05:48 63.30580 -27.50201 37334 ft 521 kts 67°
2026-05-08 05:48 63.32642 -27.34730 37329 ft 522 kts 67°
2026-05-08 05:49 63.34685 -27.19228 37330 ft 522 kts 67°
2026-05-08 05:49 63.36714 -27.03699 37330 ft 522 kts 67°
2026-05-08 05:50 63.38756 -26.88218 37367 ft 519 kts 65°
2026-05-08 05:50 63.40964 -26.72981 37323 ft 516 kts 65°
2026-05-08 05:51 63.43126 -26.57804 37320 ft 516 kts 65°
2026-05-08 05:51 63.45295 -26.42502 37321 ft 517 kts 66°
2026-05-08 05:52 63.47445 -26.27166 37318 ft 517 kts 66°
2026-05-08 05:52 63.49582 -26.11798 37314 ft 516 kts 66°
2026-05-08 05:53 63.51694 -25.96462 37306 ft 515 kts 66°
2026-05-08 05:53 63.53777 -25.81162 36868 ft 495 kts 66°
2026-05-08 05:53 63.54742 -25.73930 36091 ft 473 kts 64°
2026-05-08 05:54 63.55679 -25.67008 35336 ft 455 kts 63°
2026-05-08 05:54 63.56591 -25.60310 34609 ft 444 kts 62°
2026-05-08 05:54 63.57475 -25.53736 33838 ft 435 kts 62°
2026-05-08 05:54 63.58329 -25.47284 33009 ft 427 kts 62°
2026-05-08 05:55 63.59157 -25.41031 32282 ft 419 kts 62°
2026-05-08 05:55 63.59982 -25.34818 31520 ft 412 kts 62°
2026-05-08 05:55 63.60790 -25.28699 30774 ft 405 kts 62°
2026-05-08 05:55 63.61581 -25.22672 29978 ft 399 kts 62°
2026-05-08 05:56 63.62358 -25.16729 29118 ft 393 kts 62°
2026-05-08 05:56 63.63123 -25.10865 28294 ft 388 kts 62°
2026-05-08 05:56 63.63876 -25.05074 27483 ft 383 kts 62°
2026-05-08 05:56 63.64616 -24.99352 26698 ft 379 kts 63°
2026-05-08 05:57 63.65345 -24.93695 25937 ft 374 kts 63°
2026-05-08 05:57 63.66064 -24.88102 25195 ft 370 kts 63°
2026-05-08 05:57 63.66772 -24.82569 24469 ft 366 kts 64°
2026-05-08 05:57 63.67236 -24.78932 24001 ft 363 kts 64°
2026-05-08 05:58 63.67769 -24.73358 23187 ft 368 kts 73°
2026-05-08 05:58 63.68050 -24.67662 22643 ft 363 kts 74°
2026-05-08 05:58 63.68343 -24.62037 22105 ft 359 kts 73°
2026-05-08 05:58 63.68653 -24.56489 21575 ft 355 kts 73°
2026-05-08 05:59 63.68949 -24.50984 21052 ft 353 kts 74°
2026-05-08 05:59 63.69231 -24.45514 20537 ft 350 kts 75°
2026-05-08 05:59 63.69510 -24.40087 20031 ft 348 kts 75°
2026-05-08 05:59 63.69791 -24.34692 19531 ft 345 kts 75°
2026-05-08 06:00 63.70067 -24.29323 19040 ft 343 kts 75°
2026-05-08 06:00 63.70337 -24.23997 18549 ft 341 kts 76°
2026-05-08 06:00 63.70605 -24.18691 17991 ft 339 kts 76°
2026-05-08 06:00 63.70868 -24.13428 17440 ft 337 kts 76°
2026-05-08 06:01 63.71129 -24.08187 16890 ft 335 kts 77°
2026-05-08 06:01 63.71386 -24.02984 16367 ft 333 kts 77°
2026-05-08 06:01 63.71638 -23.97817 15847 ft 331 kts 78°
2026-05-08 06:01 63.71888 -23.92673 15331 ft 329 kts 78°
2026-05-08 06:02 63.72134 -23.87557 14847 ft 327 kts 79°
2026-05-08 06:02 63.72377 -23.82466 14346 ft 325 kts 79°
2026-05-08 06:02 63.72618 -23.77399 13818 ft 324 kts 80°
2026-05-08 06:02 63.72855 -23.72353 13263 ft 323 kts 80°
2026-05-08 06:03 63.73090 -23.67336 12719 ft 321 kts 80°
2026-05-08 06:03 63.73322 -23.62333 12182 ft 319 kts 80°
2026-05-08 06:03 63.73551 -23.57358 11655 ft 318 kts 80°
2026-05-08 06:03 63.73777 -23.52408 11137 ft 316 kts 80°
2026-05-08 06:04 63.73997 -23.47542 10638 ft 315 kts 81°
2026-05-08 06:04 63.74218 -23.42643 10131 ft 313 kts 81°
2026-05-08 06:04 63.74435 -23.37766 9577 ft 312 kts 81°
2026-05-08 06:04 63.74649 -23.32909 9020 ft 310 kts 81°
2026-05-08 06:05 63.74858 -23.28071 8475 ft 309 kts 81°
2026-05-08 06:05 63.75063 -23.23257 7934 ft 307 kts 81°
2026-05-08 06:05 63.75258 -23.18525 7409 ft 298 kts 81°
2026-05-08 06:05 63.75440 -23.13917 6989 ft 289 kts 80°
2026-05-08 06:06 63.75577 -23.09573 6984 ft 266 kts 81°
2026-05-08 06:06 63.75675 -23.05567 6995 ft 246 kts 81°
2026-05-08 06:06 63.75750 -23.01769 6985 ft 241 kts 81°
2026-05-08 06:06 63.75822 -22.97975 6771 ft 241 kts 81°
2026-05-08 06:07 63.75924 -22.94250 6478 ft 233 kts 75°
2026-05-08 06:07 63.76404 -22.90857 6111 ft 224 kts 57°
2026-05-08 06:07 63.77244 -22.87882 5564 ft 226 kts 49°
2026-05-08 06:07 63.78164 -22.85009 5049 ft 226 kts 48°
2026-05-08 06:08 63.79096 -22.82140 4516 ft 226 kts 48°
2026-05-08 06:08 63.80038 -22.79279 3992 ft 227 kts 48°
2026-05-08 06:08 63.80999 -22.76465 3468 ft 225 kts 45°
2026-05-08 06:08 63.82169 -22.74165 2903 ft 222 kts 35°
2026-05-08 06:09 63.83221 -22.71587 2509 ft 221 kts 48°
2026-05-08 06:09 63.84166 -22.68893 2411 ft 216 kts 49°
2026-05-08 06:09 63.85097 -22.66229 2391 ft 216 kts 48°
2026-05-08 06:09 63.86033 -22.63548 2362 ft 217 kts 48°
2026-05-08 06:10 63.86976 -22.60873 2232 ft 218 kts 48°
2026-05-08 06:10 63.88042 -22.58587 2017 ft 210 kts 28°
2026-05-08 06:10 63.89372 -22.58031 1782 ft 185 kts 352°
2026-05-08 06:10 63.90448 -22.58966 1600 ft 152 kts 334°
2026-05-08 06:11 63.91357 -22.60014 1289 ft 141 kts 336°
2026-05-08 06:11 63.92236 -22.60594 1135 ft 125 kts 352°
2026-05-08 06:11 63.93085 -22.60590 880 ft 120 kts 360°
2026-05-08 06:11 63.93884 -22.60566 767 ft 112 kts
2026-05-08 06:12 63.94669 -22.60535 577 ft 113 kts
2026-05-08 06:12 63.95442 -22.60546 439 ft 110 kts
2026-05-08 06:12 63.96210 -22.60551 272 ft 110 kts
2026-05-08 06:12 63.96960 -22.60546 155 ft 102 kts
2026-05-08 06:13 63.97583 -22.60544 145 ft 73 kts
2026-05-08 06:13 63.97957 -22.60540 144 ft 31 kts 360°
2026-05-08 06:13 63.98101 -22.60602 146 ft 16 kts 338°
2026-05-08 06:13 63.98195 -22.60714 146 ft 14 kts 330°
2026-05-08 06:14 63.98250 -22.60786 147 ft 7 kts 330°
2026-05-08 06:14 63.98289 -22.60837 147 ft 7 kts 330°
2026-05-08 06:14 63.98312 -22.60909 148 ft 7 kts 232°
2026-05-08 06:14 63.98208 -22.60943 147 ft 20 kts 181°
2026-05-08 06:15 63.98065 -22.60950 146 ft 21 kts 180°
2026-05-08 06:15 63.97916 -22.60949 145 ft 22 kts 180°
2026-05-08 06:15 63.97761 -22.60947 144 ft 23 kts 180°
2026-05-08 06:15 63.97602 -22.60945 143 ft 22 kts 179°
2026-05-08 06:16 63.97480 -22.60922 142 ft 15 kts 155°
2026-05-08 06:16 63.97442 -22.60775 142 ft 10 kts 104°
2026-05-08 06:16 63.97424 -22.60618 143 ft 10 kts 107°
2026-05-08 06:16 63.97389 -22.60404 142 ft 19 kts 112°
2026-05-08 06:17 63.97312 -22.59892 141 ft 7 kts 36°
2026-05-08 06:17 63.97375 -22.59829 141 ft 8 kts 26°
2026-05-08 06:17 63.97385 -22.59728 141 ft 6 kts 91°
2026-05-08 06:18 63.97385 -22.59719 141 ft 0 kts 91°